Skip Page Navigation
NASA JPL Caltech
NASA Logo - Jet Propulsion Laboratory + View the NASA Portal
+ Center for Near-Earth Object Studies
JPL Home Earth Solar System Stars & Galaxies Technology
JPL Solar System Dynamics
BODIES ORBITS EPHEMERIDES TOOLS PHYSICAL DATA DISCOVERY FAQ SITE MAP
IMPORTANT: The SSD Announcement email list is now available. Major changes are coming in the near future, including possible hostname and/or URL changes. To be notified of such changes, subscribe to this email list.

Please visit this page for more details.


JPL Small-Body Database Browser
Search: [ help ]  
65150 (2002 CA126)
Classification: Jupiter Trojan          SPK-ID: 2065150
Ephemeris | Orbit Diagram | Orbital Elements | Mission Design | Physical Parameters | Discovery Circumstances ]

[ show orbit diagram ]
Orbital Elements at Epoch 2458600.5 (2019-Apr-27.0) TDB
Reference: JPL 19 (heliocentric ecliptic J2000)
 Element Value Uncertainty (1-sigma)   Units 
e .07055230948370847 5.8226e-08  
a 5.224613680065714 1.6175e-07 au
q 4.8560051187769 3.2808e-07 au
i 7.455167336964517 6.9071e-06 deg
node 187.5798284297836 4.5207e-05 deg
peri 280.8485896692489 7.3447e-05 deg
M 194.6636513796892 6.2107e-05 deg
tp 2460603.797934094038
(2024-Oct-20.29793409)
0.00081609 TDB
period 4361.940143785535
11.94
0.00020257
5.546e-07
d
yr
n .08253208162723019 3.8328e-09 deg/d
Q 5.593222241354527 1.7317e-07 au
  Orbit Determination Parameters
   # obs. used (total)      452  
   data-arc span      15206 days (41.63 yr)  
   first obs. used      1978-03-15  
   last obs. used      2019-11-01  
   planetary ephem.      DE431  
   SB-pert. ephem.      SB431-N16  
   condition code      0  
   norm. resid. RMS      .5975  
   source      ORB  
   producer      Otto Matic  
   solution date      2019-Nov-07 07:38:26  

Additional Information
 Earth MOID = 3.88296 au 
 Jupiter MOID = .211399 au 
 T_jup = 2.978 
[ show covariance matrix ]

Ephemeris | Orbit Diagram | Orbital Elements | Mission Design | Physical Parameters | Discovery Circumstances ]

Physical Parameter Table
Parameter Symbol Value Units Sigma Reference Notes
absolute magnitude H 12.5   n/a MPO337760  

65150 (2002 CA126)          Discovered 2002-Feb-07 by LINEAR at Socorro
Reference: 20030614/Numbers.arcLast Updated: 2004-04-19

Alternate Designations
 2002 CA126 = 1978 EF9 = 1996 RQ29 
Ephemeris | Orbit Diagram | Orbital Elements | Mission Design | Physical Parameters | Discovery Circumstances ]
ABOUT SSD CREDITS/AWARDS PRIVACY/COPYRIGHT GLOSSARY LINKS
FirstGov 2020-Jan-18 00:40 UT
(server date/time)  
NASA Home Page
Site Manager:   Ryan S. Park
Webmaster  Alan B. Chamberlin